This is the latest recevied weather packets stored in our database for station/object OZ1IEP-5. If no packets are shown the sender has not sent any weather packets the latest 10 day(s).
| Time | Temp. | Humidity | Pressure | Rain* | Wind** | Luminosity | Snow |
|---|---|---|---|---|---|---|---|
| 1778136606 | 7.22° C | 89% | 1014 hPa | 0 mm | - | 58 W/m² | - |
| 1778136005 | 7.22° C | 91% | 1014 hPa | 0 mm | - | 39 W/m² | - |
| 1778135408 | 7.22° C | 92% | 1013.8 hPa | 0 mm | - | 40 W/m² | - |
| 1778134806 | 7.22° C | 92% | 1013.7 hPa | 0 mm | - | 39 W/m² | - |
| 1778134206 | 6.67° C | 93% | 1013.8 hPa | 0 mm | - | 35 W/m² | - |
| 1778133608 | 6.67° C | 92% | 1013.6 hPa | 0 mm | - | 33 W/m² | - |
| 1778133006 | 6.67° C | 93% | 1013.6 hPa | 0 mm | - | 32 W/m² | - |
| 1778132406 | 6.11° C | 92% | 1013.6 hPa | 0 mm | - | 32 W/m² | - |
| 1778131808 | 6.11° C | 93% | 1013.6 hPa | 0 mm | - | 30 W/m² | - |
| 1778131206 | 5.56° C | 92% | 1013.5 hPa | 0 mm | - | 30 W/m² | - |
| 1778130606 | 5.56° C | 92% | 1013.5 hPa | 0 mm | - | 28 W/m² | - |
| 1778130008 | 5.56° C | 92% | 1013.3 hPa | 0 mm | - | 30 W/m² | - |
| 1778129406 | 5° C | 92% | 1013.2 hPa | 0 mm | - | 28 W/m² | - |
| 1778128806 | 4.44° C | 92% | 1013.1 hPa | 0 mm | - | 46 W/m² | - |
| 1778128208 | 4.44° C | 92% | 1013.1 hPa | 0 mm | - | 88 W/m² | - |
| 1778127606 | 3.89° C | 92% | 1013 hPa | 0 mm | - | 47 W/m² | - |
| 1778127007 | 3.89° C | 92% | 1013.1 hPa | 0 mm | - | 54 W/m² | - |
| 1778126409 | 3.89° C | 92% | 1013 hPa | 0 mm | - | 23 W/m² | - |
| 1778125809 | 3.89° C | 92% | 1013 hPa | 0 mm | - | 12 W/m² | - |
| 1778125206 | 3.89° C | 91% | 1013 hPa | 0 mm | - | 9 W/m² | - |
| 1778124610 | 3.33° C | 91% | 1012.9 hPa | 0 mm | - | 5 W/m² | - |
| 1778124007 | 3.89° C | 91% | 1012.8 hPa | 0 mm | - | 0 W/m² | - |
| 1778123407 | 3.89° C | 91% | 1012.7 hPa | 0 mm | - | 0 W/m² | - |
| 1778122807 | 3.89° C | 91% | 1012.7 hPa | 0 mm | - | 0 W/m² | - |
| 1778122206 | 3.89° C | 91% | 1012.5 hPa | 0 mm | - | 0 W/m² | - |
* Rain latest hour (hover to see other rain measurements)
** Current wind speed in m/s (hover to see current wind gust speed)